| time (UTC) | temp F | wind direction | speed knots | gust knots | rain 1hr in | rain 24hr in | rain mn in | humidity % | barometer mb |
| 20260506134522 | 73 | 73 | 0.9 | 3.5 | 0.00 | 0.00 | 0.00 | 95 | 1006.6 |
| 20260506134038 | 73 | 69 | 0.9 | 3.5 | 0.00 | 0.00 | 0.00 | 95 | 1006.2 |
| 20260506133547 | 73 | 58 | 1.7 | 4.3 | 0.00 | 0.00 | 0.00 | 95 | 1006.1 |
| 20260506133006 | 73 | 86 | 1.7 | 4.3 | 0.00 | 0.00 | 0.00 | 95 | 1006.1 |
| 20260506132522 | 73 | 88 | 0.9 | 3.5 | 0.00 | 0.00 | 0.00 | 95 | 1006.1 |
| 20260506132034 | 73 | 69 | 0.9 | 3.5 | 0.00 | 0.00 | 0.00 | 96 | 1006.2 |
| 20260506131546 | 73 | 68 | 1.7 | 3.5 | 0.00 | 0.00 | 0.00 | 95 | 1006.2 |
| 20260506131010 | 73 | 71 | 0.9 | 3.5 | 0.00 | 0.00 | 0.00 | 95 | 1006.2 |
| 20260506130519 | 73 | 77 | 0.9 | 3.5 | 0.00 | 0.00 | 0.00 | 95 | 1006.2 |
| 20260506130013 | 73 | 82 | 1.7 | 3.5 | 0.00 | 0.00 | 0.00 | 95 | 1006.0 |
| 20260506125526 | 73 | 86 | 0.9 | 3.5 | 0.00 | 0.00 | 0.00 | 95 | 1006.0 |
| 20260506125040 | 73 | 66 | 0.9 | 3.5 | 0.00 | 0.00 | 0.00 | 95 | 1005.9 |
| 20260506124550 | 72 | 90 | 0.9 | 6.1 | 0.00 | 0.00 | 0.00 | 95 | 1005.8 |
| 20260506124009 | 72 | 98 | 1.7 | 6.1 | 0.00 | 0.00 | 0.00 | 95 | 1005.7 |
| 20260506123522 | 72 | 88 | 2.6 | 4.3 | 0.00 | 0.00 | 0.00 | 95 | 1005.6 |
| 20260506123030 | 72 | 102 | 1.7 | 3.5 | 0.00 | 0.00 | 0.00 | 95 | 1005.7 |
| 20260506122547 | 72 | 75 | 1.7 | 3.5 | 0.00 | 0.00 | 0.00 | 95 | 1005.8 |
| 20260506122053 | 72 | 69 | 0.9 | 2.6 | 0.00 | 0.00 | 0.00 | 95 | 1005.7 |
| 20260506121510 | 72 | 133 | 0.9 | 2.6 | 0.00 | 0.00 | 0.00 | 95 | 1005.7 |
| 20260506121026 | 72 | 134 | 0.9 | 2.6 | 0.00 | 0.00 | 0.00 | 95 | 1005.8 |
| 20260506120540 | 72 | 134 | 0.9 | 2.6 | 0.00 | 0.00 | 0.00 | 95 | 1005.8 |
| 20260506120041 | 72 | 163 | 0.9 | 1.7 | 0.00 | 0.00 | 0.00 | 95 | 1005.7 |
| 20260506115552 | 72 | 163 | 0.9 | 1.7 | 0.00 | 0.00 | 0.00 | 95 | 1005.8 |
| 20260506115009 | 73 | 163 | 0.0 | 0.9 | 0.00 | 0.00 | 0.00 | 95 | 1005.7 |
| 20260506114524 | 73 | 163 | 0.0 | 0.9 | 0.00 | 0.00 | 0.00 | 95 | 1005.7 |
| 20260506114036 | 72 | 163 | 0.0 | 0.9 | 0.00 | 0.00 | 0.00 | 94 | 1005.6 |
| 20260506113550 | 72 | 163 | 0.0 | 0.9 | 0.00 | 0.00 | 0.00 | 94 | 1005.6 |
| 20260506113010 | 72 | 163 | 0.0 | 0.9 | 0.00 | 0.00 | 0.00 | 94 | 1005.7 |
| 20260506112526 | 73 | 163 | 0.0 | 1.7 | 0.00 | 0.00 | 0.00 | 94 | 1005.8 |
| 20260506112039 | 73 | 163 | 0.0 | 1.7 | 0.00 | 0.00 | 0.00 | 94 | 1005.8 |
| 20260506111552 | 73 | 163 | 0.0 | 1.7 | 0.00 | 0.00 | 0.00 | 94 | 1005.8 |
| 20260506111008 | 73 | 163 | 0.0 | 0.9 | 0.00 | 0.00 | 0.00 | 94 | 1005.8 |
| 20260506110521 | 73 | 163 | 0.0 | 0.9 | 0.00 | 0.00 | 0.00 | 94 | 1005.7 |
| 20260506110016 | 73 | 163 | 0.0 | 0.9 | 0.00 | 0.00 | 0.00 | 94 | 1005.8 |
| 20260506105531 | 73 | 163 | 0.0 | 0.9 | 0.00 | 0.00 | 0.00 | 94 | 1005.7 |
| 20260506105046 | 73 | 163 | 0.0 | 0.9 | 0.00 | 0.00 | 0.00 | 94 | 1005.6 |
| 20260506104503 | 73 | 163 | 0.0 | 1.7 | 0.00 | 0.00 | 0.00 | 94 | 1005.5 |
| 20260506104021 | 73 | 163 | 0.0 | 1.7 | 0.00 | 0.00 | 0.00 | 94 | 1005.6 |
| 20260506103529 | 73 | 163 | 0.0 | 2.6 | 0.00 | 0.00 | 0.00 | 94 | 1005.5 |
| 20260506103039 | 73 | 163 | 0.0 | 4.3 | 0.00 | 0.00 | 0.00 | 94 | 1005.5 |
| 20260506102556 | 73 | 163 | 1.7 | 5.2 | 0.00 | 0.00 | 0.00 | 94 | 1005.4 |
| 20260506102010 | 73 | 196 | 2.6 | 6.1 | 0.00 | 0.00 | 0.00 | 94 | 1005.5 |
| 20260506101526 | 73 | 185 | 2.6 | 5.2 | 0.00 | 0.00 | 0.00 | 94 | 1005.5 |
| 20260506101035 | 73 | 190 | 0.9 | 5.2 | 0.00 | 0.00 | 0.00 | 94 | 1005.5 |
| 20260506100552 | 73 | 194 | 1.7 | 7.0 | 0.00 | 0.00 | 0.00 | 94 | 1005.4 |
| 20260506100047 | 73 | 190 | 1.7 | 7.0 | 0.00 | 0.00 | 0.00 | 94 | 1005.3 |
| 20260506095557 | 73 | 184 | 2.6 | 7.0 | 0.00 | 0.00 | 0.00 | 94 | 1005.2 |
| 20260506095019 | 73 | 197 | 2.6 | 5.2 | 0.00 | 0.00 | 0.00 | 94 | 1005.2 |
| 20260506094527 | 73 | 177 | 2.6 | 5.2 | 0.00 | 0.00 | 0.00 | 94 | 1005.4 |
| 20260506094042 | 73 | 156 | 1.7 | 7.0 | 0.00 | 0.00 | 0.00 | 94 | 1005.3 |
| 20260506093557 | 73 | 181 | 1.7 | 7.0 | 0.00 | 0.00 | 0.00 | 94 | 1005.2 |
| 20260506093018 | 73 | 227 | 1.7 | 6.1 | 0.00 | 0.00 | 0.00 | 94 | 1005.1 |
| 20260506092533 | 73 | 189 | 2.6 | 7.0 | 0.00 | 0.00 | 0.00 | 93 | 1005.0 |
| 20260506092047 | 73 | 186 | 3.5 | 7.0 | 0.00 | 0.00 | 0.00 | 93 | 1005.0 |
| 20260506091557 | 73 | 157 | 3.5 | 7.0 | 0.00 | 0.00 | 0.00 | 93 | 1005.1 |
| 20260506091505 | 73 | 177 | 3.5 | 7.0 | 0.00 | 0.00 | 0.00 | 93 | 1005.0 |
| 20260506091018 | 73 | 124 | 3.5 | 8.7 | 0.00 | 0.00 | 0.00 | 93 | 1005.0 |
| 20260506090531 | 73 | 152 | 2.6 | 8.7 | 0.00 | 0.00 | 0.00 | 93 | 1004.9 |
| 20260506090025 | 73 | 149 | 3.5 | 7.0 | 0.00 | 0.00 | 0.00 | 93 | 1004.9 |
| 20260506085543 | 73 | 161 | 2.6 | 6.1 | 0.00 | 0.00 | 0.00 | 93 | 1004.9 |
| 20260506085059 | 73 | 164 | 2.6 | 7.0 | 0.00 | 0.00 | 0.00 | 93 | 1004.9 |
| 20260506085002 | 73 | 157 | 3.5 | 7.0 | 0.00 | 0.00 | 0.00 | 93 | 1004.8 |
| 20260506084519 | 73 | 152 | 2.6 | 7.0 | 0.00 | 0.00 | 0.00 | 93 | 1004.8 |
| 20260506084027 | 73 | 136 | 3.5 | 7.0 | 0.00 | 0.00 | 0.00 | 93 | 1004.9 |
| 20260506083548 | 73 | 182 | 1.7 | 5.2 | 0.00 | 0.00 | 0.00 | 92 | 1004.9 |
| 20260506083005 | 73 | 148 | 2.6 | 7.8 | 0.00 | 0.00 | 0.00 | 92 | 1004.9 |
| 20260506082520 | 73 | 138 | 2.6 | 11.3 | 0.00 | 0.00 | 0.00 | 92 | 1005.0 |
| 20260506082029 | 73 | 169 | 5.2 | 8.7 | 0.00 | 0.00 | 0.00 | 92 | 1005.0 |
| 20260506081547 | 74 | 181 | 5.2 | 8.7 | 0.00 | 0.00 | 0.00 | 92 | 1004.9 |
| 20260506081011 | 74 | 131 | 1.7 | 9.6 | 0.00 | 0.00 | 0.00 | 92 | 1004.9 |
| 20260506080517 | 74 | 160 | 6.1 | 9.6 | 0.00 | 0.00 | 0.00 | 92 | 1005.0 |
| 20260506073526 | 74 | 154 | 3.5 | 11.3 | 0.00 | 0.00 | 0.00 | 92 | 1005.3 |
| 20260506073031 | 74 | 130 | 6.1 | 11.3 | 0.00 | 0.00 | 0.00 | 92 | 1005.4 |
| 20260506072548 | 74 | 149 | 4.3 | 8.7 | 0.00 | 0.00 | 0.00 | 92 | 1005.3 |
| 20260506072056 | 74 | 158 | 4.3 | 8.7 | 0.00 | 0.00 | 0.00 | 92 | 1005.2 |
| 20260506072003 | 74 | 165 | 6.1 | 8.7 | 0.00 | 0.00 | 0.00 | 92 | 1005.3 |
| 20260506071519 | 74 | 142 | 3.5 | 9.6 | 0.00 | 0.00 | 0.00 | 92 | 1005.4 |
| 20260506071026 | 74 | 153 | 4.3 | 9.6 | 0.00 | 0.00 | 0.00 | 91 | 1005.5 |
| 20260506070542 | 74 | 148 | 4.3 | 7.0 | 0.00 | 0.00 | 0.00 | 91 | 1005.6 |
| 20260506062035 | 75 | 167 | 5.2 | 9.6 | 0.00 | 0.00 | 0.00 | 91 | 1005.5 |
| 20260506061549 | 75 | 166 | 4.3 | 9.6 | 0.00 | 0.00 | 0.00 | 91 | 1005.5 |
| 20260506061058 | 75 | 141 | 4.3 | 9.6 | 0.00 | 0.00 | 0.00 | 90 | 1005.5 |
| 20260506060513 | 75 | 161 | 4.3 | 9.6 | 0.00 | 0.00 | 0.00 | 90 | 1005.7 |
| 20260506051020 | 75 | 154 | 5.2 | 10.4 | 0.00 | 0.00 | 0.00 | 90 | 1005.7 |
| 20260506050535 | 75 | 66 | 2.6 | 8.7 | 0.00 | 0.00 | 0.00 | 90 | 1005.8 |
| 20260506045057 | 75 | 161 | 3.5 | 9.6 | 0.00 | 0.00 | 0.00 | 90 | 1005.7 |
| 20260506044515 | 75 | 154 | 4.3 | 12.2 | 0.00 | 0.00 | 0.00 | 90 | 1005.7 |
| 20260506044025 | 75 | 131 | 4.3 | 12.2 | 0.00 | 0.00 | 0.00 | 90 | 1005.7 |
| 20260506043537 | 75 | 138 | 3.5 | 8.7 | 0.00 | 0.00 | 0.00 | 90 | 1005.6 |
| 20260506043053 | 75 | 145 | 2.6 | 8.7 | 0.00 | 0.00 | 0.00 | 90 | 1005.6 |
| 20260506042507 | 75 | 175 | 1.7 | 6.1 | 0.00 | 0.00 | 0.00 | 90 | 1005.6 |
| 20260506042024 | 75 | 153 | 0.9 | 6.1 | 0.00 | 0.00 | 0.00 | 90 | 1005.6 |
| 20260506041552 | 75 | 109 | 1.7 | 4.3 | 0.00 | 0.00 | 0.00 | 90 | 1005.5 |
| 20260506041055 | 75 | 142 | 0.9 | 6.1 | 0.00 | 0.00 | 0.00 | 89 | 1005.4 |
| 20260506040517 | 75 | 118 | 1.7 | 6.1 | 0.00 | 0.00 | 0.00 | 89 | 1005.3 |
| 20260506040007 | 75 | 127 | 2.6 | 7.0 | 0.00 | 0.00 | 0.00 | 89 | 1005.3 |
| 20260506035521 | 75 | 132 | 3.5 | 7.0 | 0.00 | 0.00 | 0.00 | 89 | 1005.2 |
| 20260506035036 | 75 | 138 | 2.6 | 5.2 | 0.00 | 0.00 | 0.00 | 88 | 1005.2 |
| 20260506034551 | 75 | 128 | 1.7 | 5.2 | 0.00 | 0.00 | 0.00 | 88 | 1005.1 |
| 20260506034008 | 75 | 142 | 1.7 | 4.3 | 0.00 | 0.00 | 0.00 | 87 | 1004.9 |
| 20260506033524 | 76 | 144 | 0.9 | 4.3 | 0.00 | 0.00 | 0.00 | 87 | 1004.9 |
| 20260506033030 | 76 | 134 | 0.9 | 3.5 | 0.00 | 0.00 | 0.00 | 87 | 1005.0 |
| 20260506032546 | 76 | 133 | 0.0 | 2.6 | 0.00 | 0.00 | 0.00 | 87 | 1005.0 |
| 20260506032058 | 76 | 132 | 0.9 | 3.5 | 0.00 | 0.00 | 0.00 | 87 | 1005.0 |
| 20260506031515 | 76 | 119 | 0.9 | 4.3 | 0.00 | 0.00 | 0.00 | 87 | 1004.8 |
| 20260506031028 | 76 | 117 | 0.9 | 5.2 | 0.00 | 0.00 | 0.00 | 86 | 1004.7 |
| 20260506030545 | 76 | 141 | 1.7 | 5.2 | 0.00 | 0.00 | 0.00 | 86 | 1004.6 |
| 20260506030037 | 76 | 106 | 0.9 | 3.5 | 0.00 | 0.00 | 0.00 | 85 | 1004.5 |
| 20260506025555 | 76 | 113 | 0.0 | 3.5 | 0.00 | 0.00 | 0.00 | 85 | 1004.4 |
| 20260506025010 | 77 | 123 | 0.0 | 0.9 | 0.00 | 0.00 | 0.00 | 84 | 1004.4 |
| 20260506024523 | 77 | 125 | 0.0 | 0.9 | 0.00 | 0.00 | 0.00 | 83 | 1004.3 |
| 20260506024033 | 77 | 125 | 0.0 | 0.9 | 0.00 | 0.00 | 0.00 | 83 | 1004.3 |
| 20260506023549 | 77 | 125 | 0.0 | 0.9 | 0.00 | 0.00 | 0.00 | 83 | 1004.3 |
| 20260506023007 | 77 | 125 | 0.0 | 0.9 | 0.00 | 0.00 | 0.00 | 83 | 1004.2 |
| 20260506022519 | 77 | 125 | 0.0 | 1.7 | 0.00 | 0.00 | 0.00 | 83 | 1004.2 |
| 20260506022033 | 77 | 125 | 0.0 | 2.6 | 0.00 | 0.00 | 0.00 | 83 | 1004.1 |
| 20260506021543 | 78 | 125 | 0.0 | 3.5 | 0.00 | 0.00 | 0.00 | 83 | 1004.0 |
| 20260506021057 | 78 | 125 | 0.0 | 3.5 | 0.00 | 0.00 | 0.00 | 82 | 1003.9 |
| 20260506020514 | 78 | 134 | 0.9 | 3.5 | 0.00 | 0.00 | 0.00 | 82 | 1003.6 |
| 20260506020007 | 78 | 120 | 1.7 | 4.3 | 0.00 | 0.00 | 0.00 | 82 | 1003.6 |
| 20260506015521 | 78 | 138 | 0.9 | 4.3 | 0.00 | 0.00 | 0.00 | 81 | 1003.5 |
| 20260506015037 | 78 | 142 | 1.7 | 4.3 | 0.00 | 0.00 | 0.00 | 81 | 1003.3 |
| 20260506014547 | 79 | 157 | 1.7 | 5.2 | 0.00 | 0.00 | 0.00 | 80 | 1003.2 |
| 20260506014005 | 79 | 154 | 0.9 | 5.2 | 0.00 | 0.00 | 0.00 | 79 | 1003.3 |
| 20260506013515 | 79 | 109 | 0.0 | 3.5 | 0.00 | 0.00 | 0.00 | 79 | 1003.1 |
| 20260506013041 | 79 | 113 | 0.9 | 3.5 | 0.00 | 0.00 | 0.00 | 78 | 1003.0 |
| 20260506012543 | 80 | 130 | 0.9 | 3.5 | 0.00 | 0.00 | 0.00 | 78 | 1003.0 |
| 20260506012055 | 80 | 136 | 0.9 | 4.3 | 0.00 | 0.00 | 0.00 | 77 | 1003.0 |
| 20260506011522 | 80 | 123 | 1.7 | 4.3 | 0.00 | 0.00 | 0.00 | 77 | 1003.0 |
| 20260506011027 | 81 | 121 | 0.9 | 2.6 | 0.00 | 0.00 | 0.00 | 76 | 1003.0 |
| 20260506010541 | 81 | 132 | 0.0 | 1.7 | 0.00 | 0.00 | 0.00 | 75 | 1003.2 |
| 20260506010037 | 81 | 133 | 0.0 | 1.7 | 0.00 | 0.00 | 0.00 | 75 | 1003.1 |
| 20260506005548 | 81 | 134 | 0.0 | 3.5 | 0.00 | 0.00 | 0.00 | 75 | 1003.2 |
| 20260506005058 | 82 | 138 | 0.0 | 3.5 | 0.00 | 0.00 | 0.00 | 74 | 1003.2 |
| 20260506005008 | 82 | 138 | 0.0 | 3.5 | 0.00 | 0.00 | 0.00 | 74 | 1003.2 |
| 20260506004521 | 82 | 130 | 0.0 | 2.6 | 0.00 | 0.00 | 0.00 | 74 | 1003.1 |
| 20260506004042 | 82 | 127 | 0.0 | 2.6 | 0.00 | 0.00 | 0.00 | 74 | 1003.1 |
| 20260506003553 | 82 | 143 | 0.0 | 1.7 | 0.00 | 0.00 | 0.00 | 74 | 1003.2 |
| 20260506003008 | 82 | 142 | 0.0 | 2.6 | 0.00 | 0.00 | 0.00 | 74 | 1003.2 |
| 20260506002522 | 82 | 143 | 0.0 | 6.1 | 0.00 | 0.00 | 0.00 | 74 | 1003.1 |
| 20260506002042 | 82 | 197 | 0.0 | 6.1 | 0.00 | 0.00 | 0.00 | 73 | 1003.1 |
| 20260506001558 | 82 | 175 | 2.6 | 7.0 | 0.00 | 0.00 | 0.00 | 73 | 1003.1 |
| 20260506001011 | 82 | 198 | 2.6 | 7.0 | 0.00 | 0.00 | 0.00 | 73 | 1003.1 |
| 20260506000527 | 83 | 178 | 2.6 | 5.2 | 0.00 | 0.00 | 0.00 | 73 | 1003.0 |
| 20260506000018 | 83 | 155 | 3.5 | 6.1 | 0.00 | 0.00 | 0.00 | 73 | 1003.0 |
| 20260505235532 | 83 | 179 | 2.6 | 6.1 | 0.00 | 0.00 | 0.00 | 72 | 1002.9 |
| 20260505235046 | 83 | 194 | 2.6 | 8.7 | 0.00 | 0.00 | 0.00 | 72 | 1003.0 |
| 20260505234557 | 83 | 196 | 2.6 | 6.1 | 0.00 | 0.00 | 0.00 | 72 | 1002.9 |
| 20260505234505 | 83 | 154 | 2.6 | 6.1 | 0.00 | 0.00 | 0.00 | 72 | 1002.9 |
| 20260505234019 | 83 | 173 | 2.6 | 7.8 | 0.00 | 0.00 | 0.00 | 72 | 1002.9 |
| 20260505233536 | 83 | 184 | 4.3 | 7.8 | 0.00 | 0.00 | 0.00 | 71 | 1002.9 |
| 20260505233040 | 83 | 165 | 3.5 | 7.0 | 0.00 | 0.00 | 0.00 | 72 | 1002.9 |